Muskogee, OK

3:43 PM CDT on October 20, 2017 (GMT -0500)
Davis

Weather History for KMKO - January, 2013

Change the Weather History Date:

Sunday, January 13, 2013

  Actual Average Record
Temperature  
Mean Temperature 26 °F -  
Max Temperature 30 °F 46 °F 62 °F (2016)
Min Temperature 21 °F 27 °F 7 °F (2011)
Degree Days  
Heating Degree Days 40    
Moisture  
Dew Point 19 °F    
Average Humidity 79    
Maximum Humidity 93    
Minimum Humidity 64    
Precipitation  
Precipitation 0.01 in - - ()
Sea Level Pressure  
Sea Level Pressure 30.22 in    
Wind  
Wind Speed 16 mph (North)    
Max Wind Speed 20 mph    
Max Gust Speed 30 mph    
Visibility 8 miles    
Events Rain , Snow    
Averages and records for this station are not official NWS values.
T = Trace of Precipitation, MM = Missing Value Source: NWS Daily Summary

Daily Weather History Graph

Daily Weather History Graph

Search for Another Location

Airport or City:

Trip Planner

Search our weather history database for the weather conditions in past years. The results will help you decide how hot, cold, wet, or windy it might be!

Date:

Astronomy

Jan. 13, 2013 Rise Set
Actual Time 7:30 AM CST 5:29 PM CST
Civil Twilight 7:03 AM CST 5:57 PM CST
Nautical Twilight 6:31 AM CST 6:29 PM CST
Astronomical Twilight 6:00 AM CST 6:59 PM CST
Moon 8:35 AM CST (1/13) 8:02 PM CST (1/13)
Length of Visible Light 10h 54m
Length of Day
9h 59m
Waxing Crescent, 5% of the Moon is Illuminated
Jan 13
Waxing Crescent
Jan 18
First Quarter
Jan 26
Full
Feb 3
Last Quarter
Feb 10
New

Hourly Weather History & Observations

Time (CST) Temp. Windchill Dew Point Humidity Pressure Visibility Wind Dir Wind Speed Gust Speed Precip Events Conditions
12:53 AM 27.0 °F 13.9 °F 21.9 °F 81% 30.06 in 10.0 mi NNW 18.4 mph 29.9 mph N/A   Overcast
1:53 AM 27.0 °F 14.3 °F 21.9 °F 81% 30.07 in 10.0 mi North 17.3 mph 24.2 mph N/A   Overcast
2:46 AM 26.6 °F 13.8 °F 21.2 °F 80% 30.09 in 10.0 mi North 17.3 mph - N/A   Mostly Cloudy
2:53 AM 26.1 °F 13.1 °F 21.0 °F 81% 30.09 in 10.0 mi North 17.3 mph - N/A   Mostly Cloudy
3:53 AM 26.1 °F 12.7 °F 21.0 °F 81% 30.12 in 10.0 mi North 18.4 mph 25.3 mph N/A   Overcast
4:17 AM 26.6 °F 14.7 °F 21.2 °F 80% 30.13 in 2.0 mi North 15.0 mph - 0.00 in Snow Light Snow
4:23 AM 24.8 °F 11.1 °F 21.2 °F 86% 30.12 in 1.5 mi North 18.4 mph 23.0 mph 0.00 in Snow Light Snow
4:30 AM 24.8 °F 11.5 °F 23.0 °F 93% 30.13 in 1.0 mi NNW 17.3 mph - 0.00 in Snow Light Snow
4:53 AM 25.0 °F 11.7 °F 23.0 °F 92% 30.15 in 0.8 mi NNW 17.3 mph - 0.01 in Snow Light Snow
5:14 AM 24.8 °F 11.1 °F 23.0 °F 93% 30.13 in 0.8 mi NNW 18.4 mph - 0.00 in Snow Light Snow
5:26 AM 24.8 °F 11.5 °F 21.2 °F 86% 30.12 in 1.0 mi North 17.3 mph - 0.00 in Snow Light Snow
5:32 AM 24.8 °F 11.9 °F 21.2 °F 86% 30.14 in 1.5 mi NNW 16.1 mph - 0.00 in Snow Light Snow
5:41 AM 24.8 °F 11.5 °F 21.2 °F 86% 30.12 in 3.0 mi North 17.3 mph 25.3 mph 0.00 in Snow Light Snow
5:53 AM 24.1 °F 10.1 °F 21.0 °F 88% 30.13 in 8.0 mi North 18.4 mph - 0.00 in Snow Light Snow
6:05 AM 24.8 °F 11.5 °F 19.4 °F 80% 30.12 in 10.0 mi North 17.3 mph 26.5 mph 0.00 in Rain Light Freezing Rain
6:33 AM 24.8 °F 11.5 °F 17.6 °F 74% 30.16 in 10.0 mi North 17.3 mph - 0.00 in   Mostly Cloudy
6:53 AM 24.1 °F 9.8 °F 18.0 °F 77% 30.17 in 10.0 mi NNW 19.6 mph 25.3 mph 0.00 in   Mostly Cloudy
7:53 AM 23.0 °F 9.2 °F 16.0 °F 74% 30.25 in 10.0 mi NNW 17.3 mph 24.2 mph N/A   Partly Cloudy
8:53 AM 23.0 °F 13.9 °F 17.1 °F 78% 30.30 in 10.0 mi NW 8.1 mph - N/A   Clear
9:53 AM 23.0 °F 8.3 °F 15.1 °F 72% 30.30 in 10.0 mi North 19.6 mph 23.0 mph N/A   Clear
10:53 AM 25.0 °F 11.3 °F 16.0 °F 69% 30.31 in 10.0 mi North 18.4 mph - N/A   Clear
11:53 AM 26.1 °F 14.0 °F 18.0 °F 71% 30.30 in 10.0 mi NNW 15.0 mph - N/A   Scattered Clouds
12:05 PM 26.6 °F 14.3 °F 17.6 °F 69% 30.28 in 10.0 mi NNW 16.1 mph 24.2 mph N/A   Mostly Cloudy
12:53 PM 27.0 °F 16.1 °F 18.0 °F 69% 30.30 in 10.0 mi North 12.7 mph 23.0 mph N/A   Scattered Clouds
1:53 PM 28.9 °F 16.9 °F 19.9 °F 69% 30.29 in 10.0 mi NNW 17.3 mph 21.9 mph N/A   Scattered Clouds
2:53 PM 30.0 °F 19.1 °F 19.9 °F 66% 30.30 in 10.0 mi North 15.0 mph - N/A   Partly Cloudy
3:53 PM 30.0 °F 19.5 °F 19.0 °F 64% 30.30 in 10.0 mi North 13.8 mph - N/A   Clear
4:53 PM 30.0 °F 21.1 °F 19.0 °F 64% 30.30 in 10.0 mi North 10.4 mph - N/A   Clear
5:53 PM 27.0 °F 19.5 °F 19.0 °F 72% 30.32 in 10.0 mi NNW 6.9 mph - N/A   Clear
6:53 PM 25.0 °F 18.1 °F 18.0 °F 75% 30.34 in 10.0 mi NNW 5.8 mph - N/A   Clear
7:53 PM 25.0 °F 14.8 °F 19.0 °F 78% 30.34 in 10.0 mi North 10.4 mph - N/A   Clear
8:53 PM 23.0 °F 15.8 °F 19.0 °F 85% 30.36 in 10.0 mi North 5.8 mph - N/A   Clear
9:53 PM 23.0 °F 14.7 °F 18.0 °F 81% 30.37 in 10.0 mi North 6.9 mph - N/A   Clear
10:53 PM 21.9 °F 13.4 °F 18.0 °F 85% 30.38 in 10.0 mi North 6.9 mph - N/A   Clear
11:53 PM 21.0 °F 16.2 °F 17.1 °F 85% 30.43 in 10.0 mi NNE 3.5 mph - N/A   Clear